This is the latest recevied weather packets stored in our database for station/object NT9G. If no packets are shown the sender has not sent any weather packets the latest 10 day(s).
| Time | Temp. | Humidity | Pressure | Rain* | Wind** | Luminosity | Snow |
|---|---|---|---|---|---|---|---|
| 1777606154 | 10° C | 94% | 1015.5 hPa | 0 mm | - | - | - |
| 1777605554 | 10° C | 96% | 1015.6 hPa | 0 mm | - | - | - |
| 1777603151 | 10.56° C | 93% | 1015.4 hPa | 0 mm | - | - | - |
| 1777602551 | 10.56° C | 90% | 1015.3 hPa | 0 mm | - | - | - |
| 1777602251 | 11.11° C | 87% | 1015 hPa | 0 mm | - | - | - |
| 1777601950 | 11.11° C | 81% | 1015.1 hPa | 0 mm | - | - | - |
| 1777601650 | 11.11° C | 76% | 1015.2 hPa | 0 mm | - | - | - |
| 1777601350 | 11.67° C | 73% | 1015.2 hPa | 0 mm | - | - | - |
| 1777601050 | 11.67° C | 72% | 1015.1 hPa | 0 mm | - | - | - |
| 1777600749 | 11.67° C | 69% | 1015 hPa | 0 mm | - | - | - |
| 1777600449 | 12.22° C | 68% | 1014.8 hPa | 0 mm | - | - | - |
| 1777600149 | 12.22° C | 67% | 1014.7 hPa | 0 mm | - | - | - |
| 1777599848 | 12.22° C | 66% | 1014.7 hPa | 0 mm | - | - | - |
| 1777599548 | 12.78° C | 63% | 1014.6 hPa | 0 mm | - | - | - |
| 1777599248 | 12.78° C | 62% | 1014.6 hPa | 0 mm | - | - | - |
| 1777598647 | 12.78° C | 61% | 1014.5 hPa | 0 mm | - | - | - |
| 1777598347 | 12.78° C | 61% | 1014.5 hPa | 0 mm | - | - | - |
| 1777598047 | 12.78° C | 61% | 1014.4 hPa | 0 mm | - | - | - |
| 1777597746 | 12.78° C | 60% | 1014.4 hPa | 0 mm | - | - | - |
| 1777597446 | 12.78° C | 60% | 1014.4 hPa | 0 mm | - | - | - |
| 1777597146 | 13.33° C | 60% | 1014.4 hPa | 0 mm | - | - | - |
| 1777596845 | 13.33° C | 60% | 1014.4 hPa | 0 mm | - | - | - |
| 1777596545 | 13.33° C | 58% | 1014.4 hPa | 0 mm | - | - | - |
| 1777595945 | 13.33° C | 57% | 1014.4 hPa | 0 mm | - | - | - |
| 1777595645 | 13.33° C | 56% | 1014.4 hPa | 0 mm | - | - | - |
* Rain since midnight (hover to see other rain measurements)
** Current wind speed in m/s (hover to see current wind gust speed)